Weather History for Cartersville, GA

Change the Weather History Date:

Tuesday, August 13, 2013

  Actual Average Record
Temperature  
Mean Temperature 78 °F 79 °F  
Max Temperature 86 °F 90 °F 100 °F (2007)
Min Temperature 70 °F 67 °F 55 °F (2004)
Cooling Degree Days 13 14  
Month to date cooling degree days 176 182  
Year to date cooling degree days 999 1038  
Since 1 June cooling degree days 874 889  
Growing Degree Days 27 (Base 50)    
Moisture  
Dew Point 71 °F    
Average Humidity 81    
Maximum Humidity 100    
Minimum Humidity 61    
Precipitation  
Precipitation 0.72 in 0.12 in 1.29 in (1980)
Month to date precipitation 3.09 1.94  
Year to date precipitation 28.16 32.60  
Sea Level Pressure  
Sea Level Pressure 29.95 in    
Wind  
Wind Speed 1 mph (South)    
Max Wind Speed 7 mph    
Max Gust Speed 15 mph    
Visibility 8 miles    
Events Fog , Rain    
T = Trace of Precipitation, MM = Missing Value Source: NWS Daily Summary

Daily Weather History Graph

Daily Weather History Graph

Search for Another Location

Airport:

Trip Planner

Search our weather history database for the weather conditions in past years. The results will help you decide how hot, cold, wet, or windy it might be!

Date:

Astronomy

Aug. 13, 2013 Rise Set
Actual Time 6:59 AM EDT 8:28 PM EDT
Civil Twilight 6:32 AM EDT 8:54 PM EDT
Nautical Twilight 6:01 AM EDT 9:26 PM EDT
Astronomical Twilight 5:27 AM EDT 9:59 PM EDT
Moon 1:32 PM EDT (8/13) No Moon Set
Length of Visible Light 14h 21m
Length of Day
13h 28m
Waxing Crescent, 41% of the Moon is Illuminated
Aug 13
Waxing Crescent
Aug 14
First Quarter
Aug 20
Full
Aug 28
Last Quarter
Sep 5
New

Hourly Weather History & Observations

Time (EDT) Temp. Heat Index Dew Point Humidity Pressure Visibility Wind Dir Wind Speed Gust Speed Precip Events Conditions
1:53 AM 72.0 °F - 70.0 °F 93% 29.98 in 6.0 mi Calm Calm - N/A   Partly Cloudy
2:53 AM 72.0 °F - 70.0 °F 93% 29.94 in 8.0 mi Calm Calm - N/A   Clear
3:53 AM 72.0 °F - 70.0 °F 93% 29.94 in 6.0 mi Calm Calm - N/A   Clear
4:53 AM 70.0 °F - 69.1 °F 97% 29.94 in 5.0 mi Calm Calm - N/A   Clear
5:53 AM 70.0 °F - 68.0 °F 93% 29.94 in 5.0 mi Calm Calm - N/A   Clear
6:53 AM 70.0 °F - 68.0 °F 93% 29.96 in 6.0 mi Calm Calm - N/A   Partly Cloudy
7:53 AM 73.0 °F - 71.1 °F 93% 29.97 in 6.0 mi Calm Calm - 0.01 in   Partly Cloudy
8:36 AM 73.4 °F - 71.6 °F 94% 30.01 in 9.0 mi Calm Calm - N/A   Mostly Cloudy
8:53 AM 73.9 °F - 71.1 °F 91% 29.98 in 9.0 mi Calm Calm - N/A   Overcast
9:07 AM 73.4 °F - 71.6 °F 94% 30.01 in 10.0 mi Calm Calm - N/A   Overcast
9:53 AM 73.9 °F - 71.1 °F 91% 29.97 in 10.0 mi Calm Calm - N/A   Overcast
10:02 AM 75.2 °F - 71.6 °F 89% 30.01 in 10.0 mi Variable 3.5 mph - N/A   Overcast
10:29 AM 75.2 °F - 71.6 °F 89% 30.01 in 10.0 mi Calm Calm - N/A   Overcast
10:49 AM 75.2 °F - 71.6 °F 89% 30.03 in 10.0 mi Calm Calm - N/A   Overcast
10:53 AM 75.9 °F - 71.1 °F 85% 29.99 in 10.0 mi Calm Calm - N/A   Overcast
11:46 AM 80.6 °F 84.6 °F 71.6 °F 74% 30.02 in 10.0 mi Calm Calm - N/A   Mostly Cloudy
11:53 AM 80.1 °F 83.8 °F 72.0 °F 76% 29.98 in 10.0 mi Variable 3.5 mph - N/A   Mostly Cloudy
12:28 PM 80.6 °F 84.6 °F 71.6 °F 74% 30.01 in 10.0 mi Variable 4.6 mph - N/A   Scattered Clouds
12:53 PM 80.1 °F 83.8 °F 72.0 °F 76% 29.96 in 10.0 mi Variable 4.6 mph - N/A   Mostly Cloudy
1:53 PM 82.9 °F 88.0 °F 72.0 °F 69% 29.95 in 10.0 mi Variable 3.5 mph - N/A   Partly Cloudy
2:53 PM 84.9 °F 90.1 °F 71.1 °F 63% 29.93 in 10.0 mi Calm Calm - N/A   Mostly Cloudy
3:53 PM 84.0 °F 88.4 °F 70.0 °F 63% 29.90 in 10.0 mi Calm Calm - N/A   Overcast
4:53 PM 84.9 °F 90.7 °F 72.0 °F 65% 29.89 in 10.0 mi Calm Calm - 0.01 in   Partly Cloudy
5:53 PM 84.9 °F 90.7 °F 72.0 °F 65% 29.88 in 10.0 mi Calm Calm - N/A   Clear
6:53 PM 82.0 °F 86.7 °F 72.0 °F 71% 29.88 in 10.0 mi Calm Calm - N/A   Mostly Cloudy
7:01 PM 78.8 °F - 73.4 °F 83% 29.93 in 0.8 mi Variable 6.9 mph - 0.20 in Rain Heavy Rain
7:15 PM 73.4 °F - 71.6 °F 94% 29.94 in 0.2 mi Variable 3.5 mph - 0.56 in Fog , Rain Heavy Rain
7:25 PM 73.4 °F - 69.8 °F 88% 29.93 in 0.8 mi Calm Calm - 0.66 in Rain Heavy Rain
7:32 PM 73.4 °F - 71.6 °F 94% 29.92 in 2.0 mi South 4.6 mph - 0.70 in Rain Heavy Rain
7:39 PM 73.4 °F - 71.6 °F 94% 29.92 in 6.0 mi Calm Calm - 0.70 in Rain Light Rain
7:53 PM 73.0 °F - 71.1 °F 93% 29.88 in 8.0 mi Calm Calm - 0.70 in   Mostly Cloudy
8:53 PM 73.0 °F - 71.1 °F 93% 29.90 in 7.0 mi Calm Calm - N/A   Scattered Clouds
9:22 PM 73.4 °F - 71.6 °F 94% 29.94 in 7.0 mi Calm Calm - N/A   Overcast
9:49 PM 73.4 °F - 71.6 °F 94% 29.95 in 7.0 mi Calm Calm - N/A   Mostly Cloudy
9:53 PM 73.9 °F - 72.0 °F 93% 29.91 in 7.0 mi Calm Calm - N/A   Scattered Clouds
10:53 PM 73.9 °F - 72.0 °F 93% 29.92 in 7.0 mi Calm Calm - N/A   Mostly Cloudy
11:53 PM 73.9 °F - 72.0 °F 93% 29.91 in 7.0 mi Calm Calm - N/A   Mostly Cloudy